This is the latest recevied weather packets stored in our database for station/object JF7BTK-10. If no packets are shown the sender has not sent any weather packets the latest 10 day(s).
| Time | Temp. | Humidity | Pressure | Rain* | Wind** | Luminosity | Snow |
|---|---|---|---|---|---|---|---|
| 1777900581 | 7.78° C | 81% | 997.2 hPa | 0.76 mm | - | - | - |
| 1777899699 | 7.78° C | 83% | 996.8 hPa | 0.25 mm | - | - | - |
| 1777899379 | 7.78° C | 85% | 996.6 hPa | 0.25 mm | - | - | - |
| 1777898799 | 7.78° C | 86% | 996.1 hPa | 0.25 mm | - | - | - |
| 1777897899 | 8.33° C | 84% | 995.6 hPa | 0 mm | - | - | - |
| 1777897000 | 8.89° C | 85% | 995.1 hPa | 0 mm | - | - | - |
| 1777895199 | 9.44° C | 86% | 994.4 hPa | 0.25 mm | - | - | - |
| 1777894581 | 9.44° C | 88% | 994 hPa | 0.25 mm | - | - | - |
| 1777893400 | 9.44° C | 92% | 993.4 hPa | 0.25 mm | - | - | - |
| 1777892779 | 9.44° C | 93% | 992.6 hPa | 0.25 mm | - | - | - |
| 1777892500 | 9.44° C | 93% | 992.6 hPa | 0.25 mm | - | - | - |
| 1777891600 | 9.44° C | 92% | 991.8 hPa | 0 mm | - | - | - |
| 1777890979 | 10° C | 91% | 991.3 hPa | 0 mm | - | - | - |
| 1777890699 | 10.56° C | 91% | 991.3 hPa | 0 mm | - | - | - |
| 1777890379 | 10.56° C | 90% | 990.9 hPa | 0 mm | - | - | - |
| 1777889800 | 11.11° C | 87% | 990.5 hPa | 0 mm | - | - | - |
| 1777888899 | 11.11° C | 85% | 990.4 hPa | 0 mm | - | - | - |
| 1777888000 | 11.67° C | 83% | 990.4 hPa | 0 mm | - | - | - |
| 1777887099 | 11.67° C | 81% | 990.1 hPa | 0 mm | - | - | - |
| 1777885300 | 12.78° C | 78% | 989.3 hPa | 0 mm | - | - | - |
| 1777884399 | 13.33° C | 76% | 989 hPa | 0 mm | - | - | - |
| 1777883500 | 13.89° C | 73% | 988.7 hPa | 0 mm | - | - | - |
| 1777882600 | 14.44° C | 75% | 988.6 hPa | 0 mm | - | - | - |
| 1777882212 | 14.44° C | 74% | 988.5 hPa | 0 mm | - | - | - |
| 1777881536 | 15.56° C | 76% | 988.6 hPa | 0 mm | - | - | - |
* Rain latest hour (hover to see other rain measurements)
** Current wind speed in m/s (hover to see current wind gust speed)